www.pogodaiklimat.ru

Погода и климат >> Архив погоды >> Россия >> Свердловская область >> Камышлов


ПОГОДА в Камышлове

  • Прогноз погоды в Камышлове
  • Монитор погоды в Камышлове

АРХИВ ПОГОДЫ в Камышлове

Время (UTC), дата Ветер
(напр.,м/с)
 
Видим.   Явления Облачность Т
(С)
Тd
(С)
f
(%)
Тe
(С)
Тes
(С)
Комфортность P
(гПа)
Po
(гПа)
Тmin
(С)
Tmax
(С)
R
(мм)
R24
(мм)
S
(см)
15 19.03 ЮВ 2 4000 м 3/0
[Ci fib]
-3.5 -10.8 57 -7 -7 1030.7 1014.3 +0.4
18 19.03 Ю 1 4000 м ясно -5.6 -11.6 63 -8 -8 1030.2 1013.7
21 19.03 ЮВ 3 4000 м ясно -8.6 -12.4 74 -14 -14 1029.9 1013.2
00 20.03 ЮВ 2 4000 м ясно -11.3 -13.4 84 -16 -16 1028.9 1012.1
03 20.03 ЮВ 2 4000 м дымка 3/0
[Cs]
-11.6 -13.7 84 -16 -15 1028.2 1011.4 -12.7 32
06 20.03 Ю 3 20 км ясно -4.8 -9.6 69 -10 -5 1026.9 1010.6
09 20.03 Ю 3 20 км ясно +0.1 -9.1 50 -4 +2 1025.2 1009.2
12 20.03 Ю 3 20 км ясно +1.1 -10.4 42 -2 -1 1023.6 1007.6
15 20.03 Ю 2 4000 м 3/0
[Ci fib]
-2.4 -9.4 59 -6 -6 1023.0 1006.8 +1.4
18 20.03 Ю 2 4000 м ясно -4.5 -10.3 64 -8 -8 1022.0 1005.7
21 20.03 Ю 1 4000 м ясно -6.5 -10.6 73 -9 -9 1021.2 1004.9
00 21.03 Ю 1 4000 м ясно -8.3 -10.9 81 -11 -11 1020.4 1003.9
03 21.03 Ю 1 20 км 9/0
[Ac trans Cs]
-8.0 -10.7 81 -10 -10 1019.6 1003.1 -9.0 32
06 21.03 ЮЗ 1 20 км 9/9 600 м
[Sc]
+0.2 -8.3 53 -1 -0 1018.1 1002.2 -8.1
09 21.03 Ю 3 20 км 9/9 600 м
[Sc]
+6.6 -5.0 43 +4 +5 1016.4 1000.8
12 21.03 З 2 20 км 9/9 600 м
[Sc]
+7.2 -3.9 45 +6 +6 1016.0 1000.5
15 21.03 СЗ 2 4000 м 10/10 600 м
[Sc]
+4.1 -1.8 65 +2 +2 1017.2 1001.5 +7.4
18 21.03 штиль 0 4000 м 10/10 600 м
[Sc]
+2.0 -2.5 72 +1 +1 1018.3 1002.5
21 21.03 штиль 0 4000 м 6/6 600 м
[Sc]
-0.8 -3.5 82 -2 -2 1018.4 1002.4
00 22.03 штиль 0 4000 м дымка 3/3 600 м
[Sc]
-3.1 -4.5 90 -4 -4 1018.4 1002.3
03 22.03 штиль 0 20 км 10/10 600 м
[Sc]
-2.1 -3.5 90 -3 -3 1018.3 1002.2 -4.9 32
06 22.03 В 1 50 км 8/8 600 м
[Sc]
+2.0 -2.7 71 +1 +2 1018.0 1002.2
09 22.03 Ю 3 50 км 8/3 600 м
[Sc Ac trans]
+4.9 -2.7 58 +2 +4 1017.0 1001.3
12 22.03 Ю 3 50 км 4/0
[Ac trans]
+5.6 -3.4 52 +3 +4 1015.6 1000.0
15 22.03 ЮВ 2 4000 м 6/0
[Ac trans]
+2.7 -3.2 65 0 0 1016.1 1000.3 +6.0
18 22.03 ЮВ 3 4000 м 10/0
[Ac As]
+0.6 -3.7 73 -4 -4 1016.5 1000.6
21 22.03 ЮВ 3 4000 м ясно -1.2 -4.4 79 -6 -6 1016.7 1000.7
00 23.03 ЮВ 2 4000 м ясно -2.8 -5.1 84 -7 -7 1017.0 1000.9
03 23.03 ЮЗ 1 20 км 8/0
[Ac trans]
-1.7 -5.5 75 -4 -3 1017.5 1001.5 -2.8 32
06 23.03 З 2 20 км 4/0
[Ac trans]
+3.0 -3.2 64 0 +5 1018.3 1002.5
09 23.03 З 3 50 км 8/8 600 м
[Sc]
+5.9 -4.3 48 +3 +4 1018.4 1002.8
12 23.03 С 1 50 км 8/8 600 м
[Sc]
+7.1 -5.1 42 +7 +7 1019.0 1003.4
15 23.03 С 2 4000 м 8/8 600 м
[Sc]
+2.5 -3.8 63 -0 -0 1020.4 1004.5 +7.4
18 23.03 штиль 0 4000 м 4/0
[Ci fib]
-0.4 -4.4 74 -1 -1 1021.5 1005.4
21 23.03 штиль 0 4000 м ясно -4.6 -6.7 85 -6 -6 1022.2 1005.9
00 24.03 ЮВ 1 4000 м ясно -5.2 -6.7 89 -8 -8 1022.5 1006.2
03 24.03 ЮВ 1 4000 м дымка 4/0
[Ac trans Ci fib]
-5.8 -7.3 89 -8 -7 1022.9 1006.5 -8.0 23
06 24.03 ЮВ 2 20 км 9/0
[Ac trans]
+0.3 -3.5 76 -3 -0 1022.5 1006.5
09 24.03 В 3 50 км 8/0
[Ac trans]
+4.3 -2.7 60 +1 +4 1021.4 1005.6
12 24.03 ЮВ 4 50 км 8/0
[Ac trans]
+4.8 -3.1 57 +1 +2 1020.0 1004.3
15 24.03 ЮВ 2 4000 м 8/8 600 м
[Sc]
+3.0 -4.0 60 0 0 1018.9 1003.1 +4.9
18 24.03 ЮВ 2 4000 м ясно 0.0 -4.4 72 -3 -3 1018.5 1002.6
21 24.03 Ю 1 4000 м ясно -1.5 -4.2 82 -4 -4 1018.8 1002.7
00 25.03 ЮВ 1 4000 м ясно -2.9 -4.6 88 -5 -5 1018.9 1002.8
03 25.03 ЮВ 2 4000 м дымка 3/0
[Ci fib]
-3.0 -4.3 91 -7 -6 1018.7 1002.5 -4.4 20
06 25.03 ЮВ 3 50 км 3/0
[Ci fib]
+2.4 -3.5 65 -1 +4 1017.5 1001.7 -3.4
09 25.03 ЮВ 6-10
{10}
50 км 8/0
[Ci fib]
+6.6 -4.1 46 +3 +5 1015.0 999.5
12 25.03 ЮВ 8-14
{14}
50 км 10/10 600 м
[Sc]
+6.6 -5.1 43 +2 +2 1012.6 997.1
15 25.03 ЮВ 7-11
{15}
4000 м 10/10 600 м
[Sc]
+5.4 -4.7 48 +1 +1 1009.8 994.3 +7.1
18 25.03 ЮВ 6-10
{14}
4000 м слаб. дождь 10/0 300 м
[As op]
+2.8 -2.2 70 -3 -3 1008.3 992.7
21 25.03 Ю 5
{10}
4000 м слаб. снег {дождь} 10/0 300 м
[As op]
+0.2 -1.3 90 -6 -6 1006.6 990.9
00 26.03 Ю 3 4000 м слаб. снег {дождь} 10/0 300 м
[As op]
+0.5 -0.7 92 -4 -4 1006.0 990.3
03 26.03 Ю 3 50 км в посл. час снег 4/4 600 м
[Sc]
+0.7 -1.2 87 -4 -3 1006.5 990.8 +0.1 8 16
06 26.03 Ю 5 20 км {снег} 8/8 600 м
[Sc]
+2.7 -3.7 63 -2 -2 1006.7 991.1
09 26.03 ЮЗ 6-10
{11}
20 км 10/10 600 м
[Sc]
+3.3 -3.9 59 -2 -2 1008.3 992.7

 

Местоположение метеостанции Камышлов (Свердловская область, Россия): широта 56.85 долгота 62.72 высота над уровнем моря 127 м.

В архиве по умолчанию представлена погода в Камышлове за последнюю неделю. Архивные данные за месяц целиком и за предыдущие месяцы, начиная с января 2011 года, Вы можете получить, выбрав интересующий диапазон дат из раскрывающегося списка и нажав кнопку "Ввод!".


*Определитесь, кто Вы:
робот инопланетянин человек

Внимание! Время в таблицах - всемирное. Для получения местного времени необходимо прибавить поправку, которая равна 5 ч.

Смотрите также архив погоды в соседних городах и на ближайших метеорологических станциях:

Погода в Бутке (Свердловская область, Россия) (66 км)
Погода в Далматово (Курганская область, Россия) (66 км)
Погода в Каменск-Уральском (Свердловская область, Россия) (70 км)
Погода в Артемовском (Свердловская область, Россия) (75 км)
Погода в Ирбите (Свердловская область, Россия) (87 км)
Погода в Верхнем Дуброво (Свердловская область, Россия) (101 км)
Погода в Шадринске (Курганская область, Россия) (104 км)
Погода в Тугулыме (Свердловская область, Россия) (121 км)
Погода в Сысерти (Свердловская область, Россия) (122 км)
Погода в Шатрово (Курганская область, Россия) (123 км)

Пояснения к столбцам:

Ветер - указаны скорость ветра в м/с - средняя за 10 мин, порывы в срок и между сроками (в фигурных скобках) и направление, откуда дует ветер: С - северный, СВ - северо-восточный, В - восточный, ЮВ - юго-восточный, Ю - южный, ЮЗ - юго-западный, З - западный, СЗ - северо-западный.
Видимость - горизонтальная дальность видимости в метрах или километрах. При видимости от 1 до 10 км при отсутствии осадков обычно наблюдается дымка, при ухудшении видимости до 1 км и менее - туман. В сухую погоду видимость может ухудшаться дымом, пылью или мглою.
Явления - указаны атмосферные явления, наблюдавшиеся в срок или в последний час перед сроком; фигурными скобками обозначены явления, наблюдавшиеся между сроками (за 1-3 часа до срока); квадратными скобками обозначены град или гололедные отложения с указанием их диаметра в мм.
Облачность - указаны через наклонную черту общая и нижняя облачность в баллах и высота нижней границы облаков в метрах; квадратными скобками обозначены формы облаков: Ci - перистые, Cs - перисто-слоистые, Cc - перисто-кучевые, Ac - высококучевые, As - высокослоистые, Sc - слоисто-кучевые, Ns - слоисто-дождевые, Cu - кучевые, Cb - кучево-дождевые. Подробнее классификацию облаков см. в Атласе облаков (PDF).
T - Температура воздуха - температура, измеренная на высоте 2 м над землей.
Td - Температура точки росы - температура, при понижении до которой содержащийся в воздухе водяной пар достигнет насыщения.
f - Относительная влажность воздуха - влажноcть воздуха, измеренная на высоте 2 м над землей.
Te - Эффективная температура - температура, которую ощущает одетый по сезону человек в тени. Характеристика душности погоды. При расчете учитывается влияние влажности воздуха и скорости ветра на теплоощущения человека.
Tes - Эффективная температура на солнце - температура, которую ощущает человек, с поправкой на солнечный нагрев. Характеристика знойности погоды. Зависит от высоты солнца над горизонтом, облачности и скорости ветра. Ночью, в пасмурную погоду, а также при ветре 12 м/с и более поправка равна нулю.
P - Атмосферное давление - приведенное к уровню моря атмосферное давление.
Po - Атмосферное давление - измеренное на уровне метеостанции атмосферное давление.
Tmin - Минимальная температура - минимум температуры воздуха на высоте 2 м над землей.
Tmax - Максимальная температура - максимум температуры воздуха на высоте 2 м над землей.
R - Количество осадков - Количество выпавших осадков за период времени, мм. При наведении курсора мыши на число - период времени, за который выпало указанное количество осадков.
R24 - Количество осадков - Количество выпавших осадков за 24 часа, мм.
S - Снежный покров - Высота снежного покрова, см. При наведении курсора мыши на число - состояние снежного покрова и степень покрытия местности в баллах.